period_start,C,m1,H,J0,J1,J2,J3,J4,J5,JA,JB,JC,JD,JJ,JK,JN,#
2016-07-05 00:02:40,-0.03,0.02,0.00,23.78,27.43,30.47,14.41,44.22,1020.03,2040.24,3552.15,3142.03,3570.11,599.77,596.15,3.12,0000 0000 0000 0000 000000
2016-07-05 00:07:42,0.03,0.02,0.00,23.82,27.50,30.51,14.46,44.19,1020.03,2040.00,3551.77,3141.46,3569.47,600.11,596.45,3.17,0000 0000 0000 0000 000000
2016-07-05 00:12:43,0.01,0.02,0.00,23.66,27.57,30.56,14.46,44.32,1020.04,2039.99,3551.04,3141.00,3568.97,599.82,596.53,3.22,0000 0000 0000 0000 000000
2016-07-05 00:17:45,-0.00,0.02,0.00,23.57,27.62,30.60,14.50,44.30,1020.05,2039.60,3550.23,3140.29,3568.15,600.10,597.13,3.27,0000 0000 0000 0000 000000
2016-07-05 00:22:46,-0.01,0.02,0.00,23.78,27.68,30.62,14.39,44.22,1020.04,2039.05,3549.83,3139.88,3567.46,599.70,596.24,3.32,0000 0000 0000 0000 000000
2016-07-05 00:27:48,0.03,0.02,0.00,23.87,27.74,30.65,14.48,44.14,1020.04,2038.99,3549.10,3139.13,3566.87,600.07,596.37,3.37,0000 0000 0000 0000 000000
2016-07-05 00:32:49,0.00,0.03,0.00,23.93,27.80,30.68,14.46,44.15,1020.04,2038.89,3548.91,3138.96,3566.10,600.01,596.17,3.42,0000 0000 0000 0000 000000
2016-07-05 00:37:50,-0.03,0.02,0.00,23.95,27.86,30.73,14.43,44.47,1020.06,2038.24,3548.16,3138.26,3565.85,600.12,596.27,3.47,0000 0000 0000 0000 000000
2016-07-05 00:42:51,0.01,0.02,0.00,23.97,27.91,30.77,14.46,44.31,1020.05,2038.01,3547.99,3138.00,3565.12,600.12,596.39,3.52,0000 0000 0000 0000 000000
2016-07-05 00:47:53,0.03,0.02,0.00,23.98,27.96,30.80,14.51,44.21,1020.09,2038.00,3547.30,3137.59,3564.92,600.18,596.19,3.57,0000 0000 0000 0000 000000
2016-07-05 00:52:54,0.08,0.03,0.00,23.96,28.01,30.83,14.43,44.23,1020.11,2037.94,3546.41,3136.47,3563.52,600.04,596.15,3.62,0000 0000 0000 0000 000000
2016-07-05 00:57:56,-0.02,0.03,0.00,24.00,28.06,30.86,14.43,44.16,1020.06,2037.52,3545.05,3135.06,3562.04,599.95,595.95,3.67,0000 0000 0000 0000 000000
2016-07-05 01:02:57,-0.02,0.03,0.00,24.07,28.10,30.88,14.50,44.11,1020.05,2037.06,3544.95,3135.00,3561.83,600.48,596.39,3.72,0000 0000 0000 0000 000000
2016-07-05 01:07:58,0.02,0.03,0.00,24.06,28.14,30.90,14.48,44.11,1020.06,2037.00,3544.48,3134.98,3561.15,599.94,595.87,3.77,0000 0000 0000 0000 000000
2016-07-05 01:12:59,0.02,0.03,0.00,24.14,28.17,30.93,14.40,44.08,1020.05,2037.00,3544.01,3134.47,3561.00,599.87,595.58,3.82,0000 0000 0000 0000 000000
2016-07-05 01:18:01,0.01,0.03,0.00,24.18,28.21,30.95,14.47,44.13,1020.07,2036.96,3543.94,3134.02,3560.43,600.41,595.99,3.87,0000 0000 0000 0000 000000
2016-07-05 01:23:02,-0.04,0.03,0.00,24.24,28.24,30.95,14.42,44.10,1020.15,2036.47,3543.26,3133.97,3560.01,599.75,595.40,3.92,0000 0000 0000 0000 000000
2016-07-05 01:28:03,0.00,0.03,0.00,24.28,28.27,30.96,14.32,43.92,1020.12,2036.06,3542.99,3133.46,3559.84,599.92,595.55,3.97,0000 0000 0000 0000 000000
2016-07-05 01:33:04,0.01,0.03,0.00,24.30,28.30,30.98,14.46,44.08,1020.39,2036.01,3542.90,3133.03,3559.25,600.02,595.63,4.02,0000 0000 0000 0000 000000
2016-07-05 01:38:06,0.01,0.03,0.00,24.35,28.33,30.99,14.48,44.09,1020.44,2036.00,3542.31,3133.00,3559.01,599.97,595.50,4.07,0000 0000 0000 0000 000000
2016-07-05 01:43:07,0.00,0.03,0.00,24.39,28.36,31.01,14.40,44.07,1020.41,2035.99,3542.05,3132.96,3558.98,600.06,595.50,4.12,0000 0000 0000 0000 000000
2016-07-05 01:48:08,0.03,0.03,0.00,24.43,28.38,31.03,14.36,44.09,1020.47,2035.97,3541.69,3132.26,3558.18,599.69,595.13,4.17,0000 0000 0000 0000 000000
2016-07-05 01:53:10,0.15,0.04,0.00,24.44,28.40,31.05,14.37,44.23,1020.52,2035.87,3539.12,3129.25,3555.02,599.62,595.02,4.22,0000 0000 0000 0000 000000
2016-07-05 01:58:11,0.01,0.04,0.00,24.47,28.42,31.06,14.40,44.14,1020.52,2035.60,3538.36,3129.00,3554.10,600.11,595.46,4.27,0000 0000 0000 0000 000000
2016-07-05 02:03:13,-0.03,0.04,0.00,24.47,28.45,31.07,14.40,44.16,1020.52,2035.30,3538.05,3128.98,3554.01,599.93,595.33,4.32,0000 0000 0000 0000 000000
2016-07-05 02:08:14,-0.00,0.04,0.00,24.50,28.47,31.08,14.34,44.02,1020.52,2035.05,3538.00,3128.57,3553.95,599.82,595.14,4.37,0000 0000 0000 0000 000000
2016-07-05 02:13:16,0.02,0.04,0.00,24.52,28.50,31.09,14.33,44.00,1020.52,2035.00,3537.97,3128.05,3553.24,599.92,595.13,4.42,0000 0000 0000 0000 000000
2016-07-05 02:18:17,0.01,0.04,0.00,24.55,28.52,31.11,14.29,44.02,1020.52,2035.00,3537.74,3128.01,3553.02,599.75,594.98,4.47,0000 0000 0000 0000 000000
2016-07-05 02:23:18,0.00,0.04,0.00,24.58,28.54,31.13,14.38,44.08,1020.52,2034.98,3537.32,3128.00,3553.00,600.02,595.17,4.52,0000 0000 0000 0000 000000
2016-07-05 02:28:19,0.00,0.04,0.00,24.61,28.56,31.15,14.43,44.26,1020.52,2034.97,3537.06,3127.96,3552.96,600.05,595.14,4.57,0000 0000 0000 0000 000000
2016-07-05 02:33:21,-0.00,0.04,0.00,24.62,28.58,31.16,14.43,44.17,1020.52,2034.87,3537.01,3127.91,3552.76,600.20,595.23,4.62,0000 0000 0000 0000 000000
2016-07-05 02:38:22,-0.01,0.04,0.00,24.65,28.60,31.16,14.36,44.29,1020.52,2034.60,3537.00,3127.37,3552.14,599.88,594.86,4.67,0000 0000 0000 0000 000000
2016-07-05 02:43:23,-0.02,0.04,0.00,24.68,28.62,31.19,14.48,44.51,1020.51,2034.15,3536.95,3127.02,3552.00,600.16,595.04,4.72,0000 0000 0000 0000 000000
2016-07-05 02:48:24,0.00,0.04,0.00,24.71,28.65,31.20,14.41,44.49,1020.50,2034.01,3536.55,3127.00,3551.99,600.14,594.97,4.77,0000 0000 0000 0000 000000
2016-07-05 02:53:26,0.01,0.04,0.00,24.74,28.67,31.23,14.38,44.46,1020.49,2034.00,3536.08,3126.97,3551.90,599.70,594.58,4.83,0000 0000 0000 0000 000000
2016-07-05 02:58:27,0.01,0.04,0.00,24.77,28.69,31.24,14.40,44.35,1020.50,2034.00,3536.00,3126.88,3551.29,599.95,594.66,4.88,0000 0000 0000 0000 000000
2016-07-05 03:03:28,0.02,0.04,0.00,24.78,28.71,31.25,14.44,44.42,1020.51,2034.00,3535.99,3126.23,3551.01,600.16,594.88,4.93,0000 0000 0000 0000 000000
2016-07-05 03:08:30,0.00,0.04,0.00,24.81,28.72,31.27,14.44,44.24,1020.52,2033.99,3535.95,3126.06,3550.99,600.00,594.65,4.98,0000 0000 0000 0000 000000
2016-07-05 03:13:31,0.00,0.04,0.00,24.84,28.75,31.29,14.34,44.14,1020.52,2033.93,3535.59,3126.01,3550.89,599.81,594.45,5.03,0000 0000 0000 0000 000000
2016-07-05 03:18:32,0.01,0.04,0.00,24.87,28.76,31.31,14.34,44.19,1020.52,2033.88,3535.10,3126.00,3550.33,600.06,594.61,5.08,0000 0000 0000 0000 000000
2016-07-05 03:23:34,-0.03,0.04,0.00,24.88,28.78,31.33,14.36,44.16,1020.52,2033.57,3535.00,3125.96,3550.02,599.95,594.47,5.13,0000 0000 0000 0000 000000
2016-07-05 03:28:35,-0.02,0.04,0.00,24.90,28.80,31.34,14.36,44.09,1020.52,2033.16,3534.99,3125.68,3550.00,600.04,594.55,5.18,0000 0000 0000 0000 000000
2016-07-05 03:33:36,0.00,0.04,0.00,24.93,28.82,31.36,14.40,44.01,1020.52,2033.04,3534.87,3125.19,3549.97,600.03,594.50,5.23,0000 0000 0000 0000 000000
2016-07-05 03:38:37,0.01,0.04,0.00,24.97,28.83,31.38,14.35,44.13,1020.53,2033.02,3534.37,3125.03,3549.83,599.84,594.22,5.28,0000 0000 0000 0000 000000
2016-07-05 03:43:39,0.01,0.04,0.00,24.97,28.85,31.39,14.33,44.22,1020.53,2033.00,3534.03,3125.00,3549.24,600.06,594.43,5.33,0000 0000 0000 0000 000000
2016-07-05 03:48:40,0.00,0.04,0.00,25.00,28.86,31.40,14.40,44.18,1020.52,2033.00,3534.00,3125.00,3549.04,599.98,594.30,5.38,0000 0000 0000 0000 000000
2016-07-05 03:53:41,0.00,0.04,0.00,25.02,28.87,31.41,14.40,44.15,1020.52,2033.00,3533.99,3124.99,3549.00,599.79,594.10,5.43,0000 0000 0000 0000 000000
2016-07-05 03:58:42,-0.00,0.04,0.00,25.05,28.90,31.43,14.39,44.23,1020.52,2033.00,3533.92,3124.92,3548.99,600.03,594.25,5.48,0000 0000 0000 0000 000000
2016-07-05 04:03:44,0.02,0.04,0.00,25.09,28.90,31.43,14.35,44.16,1020.52,2032.98,3533.56,3124.59,3548.89,599.84,593.96,5.53,0000 0000 0000 0000 000000
2016-07-05 04:08:45,0.02,0.04,0.00,25.10,28.92,31.46,14.37,44.12,1020.52,2032.99,3533.08,3124.17,3548.56,600.18,594.24,5.58,0000 0000 0000 0000 000000
2016-07-05 04:13:46,0.00,0.04,0.00,25.12,28.92,31.48,14.33,44.00,1020.52,2032.96,3533.01,3124.02,3548.12,599.73,593.78,5.63,0000 0000 0000 0000 000000
2016-07-05 04:18:48,-0.00,0.04,0.00,25.13,28.95,31.49,14.36,44.07,1020.52,2032.94,3533.00,3124.00,3548.03,600.02,594.00,5.68,0000 0000 0000 0000 000000
2016-07-05 04:23:49,0.00,0.04,0.00,25.16,28.95,31.50,14.34,44.13,1020.52,2032.94,3532.99,3124.00,3548.01,599.60,593.69,5.73,0000 0000 0000 0000 000000
2016-07-05 04:28:51,-0.00,0.04,0.00,25.17,28.96,31.50,14.40,44.21,1020.52,2032.90,3532.89,3124.00,3548.00,600.06,594.13,5.78,0000 0000 0000 0000 000000
2016-07-05 04:33:52,0.00,0.04,0.00,25.20,28.97,31.52,14.29,43.98,1020.52,2032.76,3532.29,3123.99,3547.98,600.06,593.98,5.83,0000 0000 0000 0000 000000
2016-07-05 04:38:54,-0.03,0.04,0.00,25.22,28.98,31.53,14.45,44.06,1020.52,2032.52,3532.04,3123.95,3547.88,600.09,593.92,5.88,0000 0000 0000 0000 000000
2016-07-05 04:43:55,0.00,0.04,0.00,25.25,29.00,31.54,14.39,44.27,1020.52,2032.36,3532.00,3123.85,3547.69,599.87,593.62,5.93,0000 0000 0000 0000 000000
2016-07-05 04:48:57,-0.00,0.04,0.00,25.26,29.00,31.55,14.36,44.42,1020.52,2032.23,3531.99,3123.44,3547.18,599.56,593.33,5.98,0000 0000 0000 0000 000000
2016-07-05 04:53:58,0.00,0.04,0.00,25.27,29.00,31.56,14.40,44.33,1020.52,2032.10,3531.99,3123.18,3547.02,600.11,593.87,6.03,0000 0000 0000 0000 000000
2016-07-05 04:58:59,0.01,0.04,0.00,25.29,29.02,31.57,14.42,44.13,1020.49,2032.11,3531.75,3123.06,3547.00,600.01,593.73,6.08,0000 0000 0000 0000 000000
2016-07-05 05:04:00,-0.00,0.04,0.00,25.31,29.02,31.58,14.38,44.19,1020.44,2032.03,3531.10,3123.00,3546.97,599.85,593.43,6.13,0000 0000 0000 0000 000000
2016-07-05 05:09:01,0.00,0.04,0.00,25.32,29.02,31.57,14.28,44.07,1020.32,2032.02,3531.04,3123.00,3546.97,600.06,593.62,6.18,0000 0000 0000 0000 000000
2016-07-05 05:14:03,0.00,0.04,0.00,25.35,29.03,31.59,14.34,44.21,1020.32,2032.01,3531.00,3122.98,3546.79,599.98,593.48,6.23,0000 0000 0000 0000 000000
2016-07-05 05:19:04,0.00,0.04,0.00,25.37,29.05,31.59,14.36,44.15,1020.29,2032.01,3531.00,3122.97,3546.40,600.13,593.62,6.28,0000 0000 0000 0000 000000
2016-07-05 05:24:05,0.00,0.04,0.00,25.39,29.05,31.61,14.35,44.17,1020.15,2032.00,3530.99,3122.96,3546.05,600.20,593.41,6.33,0000 0000 0000 0000 000000
2016-07-05 05:29:06,0.00,0.04,0.00,25.41,29.05,31.61,14.39,44.13,1020.24,2032.00,3530.96,3122.90,3546.03,599.83,593.22,6.38,0000 0000 0000 0000 000000
2016-07-05 05:34:07,0.01,0.04,0.00,25.42,29.05,31.62,14.40,44.00,1020.37,2032.00,3530.90,3122.70,3546.00,599.98,593.37,6.43,0000 0000 0000 0000 000000
2016-07-05 05:39:09,-0.00,0.04,0.00,25.43,29.07,31.65,14.35,44.23,1020.37,2032.00,3530.89,3122.55,3546.00,599.98,593.35,6.48,0000 0000 0000 0000 000000
2016-07-05 05:44:10,0.01,0.04,0.00,25.45,29.07,31.63,14.38,44.11,1020.41,2032.00,3530.52,3122.21,3545.99,599.99,593.34,6.53,0000 0000 0000 0000 000000
2016-07-05 05:49:11,0.01,0.04,0.00,25.49,29.07,31.64,14.33,44.16,1020.48,2031.99,3530.15,3122.05,3545.98,600.03,593.39,6.58,0000 0000 0000 0000 000000
2016-07-05 05:54:12,0.00,0.04,0.00,25.50,29.08,31.65,14.28,44.13,1020.49,2031.99,3530.02,3122.02,3545.87,599.99,593.29,6.63,0000 0000 0000 0000 000000
2016-07-05 05:59:13,0.00,0.04,0.00,25.51,29.10,31.65,14.41,44.13,1020.52,2031.98,3530.00,3122.01,3545.65,600.25,593.54,6.68,0000 0000 0000 0000 000000
2016-07-05 06:04:14,0.00,0.04,0.00,25.52,29.10,31.66,14.28,44.08,1020.51,2031.99,3530.00,3122.00,3545.54,599.68,592.97,6.73,0000 0000 0000 0000 000000
2016-07-05 06:09:16,0.00,0.05,0.00,25.54,29.10,31.68,14.31,44.28,1020.49,2031.98,3529.97,3122.00,3545.19,600.01,593.17,6.78,0000 0000 0000 0000 000000
2016-07-05 06:14:17,0.00,0.05,0.00,25.57,29.12,31.68,14.35,44.36,1020.52,2031.98,3529.58,3121.99,3545.02,600.04,593.21,6.83,0000 0000 0000 0000 000000
2016-07-05 06:19:19,0.00,0.05,0.00,25.58,29.12,31.70,14.33,44.23,1020.52,2031.98,3529.27,3121.98,3545.00,599.94,593.18,6.88,0000 0000 0000 0000 000000
2016-07-05 06:24:20,0.00,0.05,0.00,25.60,29.13,31.70,14.36,44.33,1020.52,2031.98,3529.13,3121.96,3545.01,600.05,593.15,6.93,0000 0000 0000 0000 000000
2016-07-05 06:29:21,0.00,0.05,0.00,25.62,29.15,31.71,14.32,44.17,1020.52,2031.98,3529.01,3121.89,3545.00,599.97,593.12,6.98,0000 0000 0000 0000 000000
2016-07-05 06:34:22,0.01,0.05,0.00,25.64,29.15,31.73,14.33,44.23,1020.52,2031.97,3529.00,3121.53,3544.98,600.13,593.17,7.03,0000 0000 0000 0000 000000
2016-07-05 06:39:23,0.01,0.05,0.00,25.66,29.16,31.73,14.31,44.26,1020.52,2031.95,3528.97,3121.13,3544.85,599.91,592.97,7.08,0000 0000 0000 0000 000000
2016-07-05 06:44:24,0.00,0.05,0.00,25.67,29.17,31.74,14.30,44.05,1020.50,2031.94,3528.94,3121.04,3544.64,599.81,592.78,7.13,0000 0000 0000 0000 000000
2016-07-05 06:49:25,0.00,0.05,0.00,25.69,29.17,31.74,14.34,44.22,1020.43,2031.92,3528.78,3121.03,3544.26,600.00,593.06,7.18,0000 0000 0000 0000 000000
2016-07-05 06:54:26,0.00,0.05,0.00,25.71,29.20,31.75,14.35,44.20,1020.48,2031.80,3528.34,3121.00,3544.04,599.92,592.94,7.24,0000 0000 0000 0000 000000
2016-07-05 06:59:28,-0.02,0.05,0.00,25.73,29.20,31.78,14.30,44.27,1020.48,2031.58,3528.05,3121.00,3544.00,600.04,592.95,7.29,0000 0000 0000 0000 000000
2016-07-05 07:04:29,-0.03,0.05,0.00,25.75,29.21,31.79,14.37,44.22,1020.47,2031.24,3528.00,3120.99,3544.00,600.03,592.83,7.34,0000 0000 0000 0000 000000
2016-07-05 07:09:31,0.00,0.05,0.00,25.77,29.22,31.80,14.34,44.17,1020.39,2031.17,3528.00,3120.98,3543.98,600.05,592.85,7.39,0000 0000 0000 0000 000000
2016-07-05 07:14:32,-0.01,0.04,0.00,25.80,29.22,31.80,14.31,44.00,1020.11,2031.11,3527.99,3120.96,3543.97,600.11,592.53,7.44,0000 0000 0000 0000 000000
2016-07-05 07:19:33,0.01,0.04,0.00,25.82,29.25,31.81,14.35,44.11,1020.09,2031.07,3527.90,3120.83,3543.84,599.98,592.41,7.49,0000 0000 0000 0000 000000
2016-07-05 07:24:34,0.01,0.05,0.00,25.86,29.25,31.82,14.23,44.16,1020.10,2031.04,3527.62,3120.59,3543.53,599.82,592.10,7.54,0000 0000 0000 0000 000000
2016-07-05 07:29:35,0.02,0.05,0.00,25.88,29.26,31.84,14.30,44.11,1020.05,2031.01,3527.16,3120.16,3543.08,599.67,591.88,7.59,0000 0000 0000 0000 000000
2016-07-05 07:34:37,0.00,0.05,0.00,25.91,29.27,31.83,14.25,44.01,1020.06,2031.01,3527.02,3120.06,3543.01,599.45,591.71,7.64,0000 0000 0000 0000 000000
2016-07-05 07:39:38,0.00,0.05,0.00,25.92,29.28,31.85,14.26,44.18,1020.07,2031.00,3527.00,3120.01,3543.00,599.86,592.11,7.69,0000 0000 0000 0000 000000
2016-07-05 07:44:40,0.00,0.05,0.00,25.94,29.30,31.93,14.40,44.23,1020.06,2031.00,3527.00,3120.00,3542.99,600.16,592.36,7.74,0000 0000 0000 0000 000000
2016-07-05 07:49:41,0.00,0.05,0.00,25.96,29.30,31.90,14.22,44.26,1020.06,2031.00,3526.89,3120.00,3542.84,599.77,592.06,7.79,0000 0000 0000 0000 000000
2016-07-05 07:54:42,0.01,0.05,0.00,25.98,29.32,31.93,14.32,44.33,1020.06,2030.99,3526.38,3119.96,3542.21,599.79,591.89,7.84,0000 0000 0000 0000 000000
2016-07-05 07:59:43,0.00,0.05,0.00,26.00,29.32,31.93,14.28,44.12,1020.14,2030.97,3526.17,3119.90,3542.04,600.08,592.21,7.89,0000 0000 0000 0000 000000
2016-07-05 08:04:45,0.01,0.05,0.00,26.02,29.34,31.92,14.28,44.14,1020.34,2030.94,3526.01,3119.38,3542.00,599.69,591.81,7.94,0000 0000 0000 0000 000000
2016-07-05 08:09:46,0.00,0.05,0.00,26.05,29.35,31.93,14.32,44.09,1020.22,2030.95,3525.98,3119.07,3541.99,600.08,592.08,7.99,0000 0000 0000 0000 000000
2016-07-05 08:14:48,-0.00,0.05,0.00,26.07,29.37,31.94,14.35,44.02,1020.08,2030.89,3525.92,3119.01,3541.95,600.15,592.07,8.04,0000 0000 0000 0000 000000
2016-07-05 08:19:49,0.38,0.06,0.00,26.09,29.37,31.94,14.34,44.14,1020.05,2030.67,3521.28,3114.20,3536.10,600.13,592.00,8.09,0000 0000 0000 0000 000000
2016-07-05 08:24:50,0.22,0.08,0.00,26.11,29.40,31.96,14.25,44.17,1020.05,2030.34,3515.52,3108.07,3528.65,599.52,591.37,8.14,0000 0000 0000 0000 000000
2016-07-05 08:29:51,-0.00,0.08,0.00,26.13,29.41,31.99,14.25,43.97,1020.04,2030.13,3515.00,3107.18,3528.01,600.05,591.92,8.19,0000 0000 0000 0000 000000
2016-07-05 08:34:53,0.04,0.08,0.00,26.15,29.42,32.02,14.31,44.01,1020.05,2030.05,3514.48,3106.55,3527.47,599.91,591.56,8.24,0000 0000 0000 0000 000000
2016-07-05 08:39:54,0.00,0.08,0.00,26.16,29.44,32.01,14.22,44.05,1020.04,2030.01,3513.99,3106.01,3526.92,599.93,591.66,8.29,0000 0000 0000 0000 000000
2016-07-05 08:44:55,0.01,0.08,0.00,26.18,29.45,32.06,14.31,44.11,1020.04,2030.00,3513.69,3106.00,3526.22,600.04,591.71,8.34,0000 0000 0000 0000 000000
2016-07-05 08:49:56,0.01,0.08,0.00,26.19,29.47,32.05,14.25,44.10,1020.04,2030.00,3513.10,3105.99,3526.01,600.06,591.86,8.39,0000 0000 0000 0000 000000
2016-07-05 08:54:57,0.00,0.08,0.00,26.21,29.48,32.06,14.22,43.91,1020.04,2030.00,3513.01,3105.90,3526.00,599.95,591.54,8.44,0000 0000 0000 0000 000000
2016-07-05 08:59:59,0.01,0.08,0.00,26.22,29.50,32.08,14.31,44.00,1020.04,2030.00,3513.00,3105.73,3525.99,600.24,591.81,8.49,0000 0000 0000 0000 000000
2016-07-05 09:05:00,0.02,0.08,0.00,26.24,29.51,32.13,14.28,44.02,1020.04,2030.00,3512.92,3105.19,3525.77,600.32,591.68,8.54,0000 0000 0000 0000 000000
2016-07-05 09:10:01,0.02,0.09,0.00,26.25,29.53,32.12,14.27,44.06,1020.04,2030.00,3512.37,3105.01,3525.27,599.92,591.50,8.59,0000 0000 0000 0000 000000
2016-07-05 09:15:03,0.00,0.09,0.00,26.27,29.55,32.14,14.21,43.92,1020.04,2029.97,3512.03,3105.00,3525.01,599.84,591.28,8.64,0000 0000 0000 0000 000000
2016-07-05 09:20:04,-0.00,0.09,0.00,26.29,29.56,32.14,14.30,43.90,1020.02,2029.95,3512.00,3104.98,3525.00,600.00,591.39,8.69,0000 0000 0000 0000 000000
2016-07-05 09:25:06,0.00,0.09,0.00,26.30,29.58,32.15,14.34,43.99,1020.00,2029.84,3511.92,3104.80,3524.93,600.16,591.62,8.74,0000 0000 0000 0000 000000
2016-07-05 09:30:07,-0.01,0.09,0.00,26.33,29.60,32.18,14.28,43.81,1020.02,2029.51,3511.68,3104.26,3524.44,599.96,591.33,8.79,0000 0000 0000 0000 000000
2016-07-05 09:35:09,-0.01,0.09,0.00,26.37,29.62,32.18,14.27,43.85,1020.03,2029.26,3511.09,3104.05,3524.04,599.85,591.22,8.84,0000 0000 0000 0000 000000
2016-07-05 09:40:10,-0.01,0.09,0.00,26.37,29.64,32.20,14.29,43.94,1020.02,2029.08,3511.00,3104.00,3524.00,600.02,591.21,8.89,0000 0000 0000 0000 000000
2016-07-05 09:45:11,-0.00,0.09,0.00,26.39,29.66,32.23,14.31,43.95,1020.03,2029.05,3510.98,3103.99,3523.98,600.08,591.37,8.94,0000 0000 0000 0000 000000
2016-07-05 09:50:13,0.02,0.09,0.00,26.40,29.68,32.25,14.24,43.98,1020.03,2029.02,3510.47,3103.90,3523.64,599.86,591.12,8.99,0000 0000 0000 0000 000000
2016-07-05 09:55:14,0.02,0.09,0.00,26.42,29.71,32.25,14.22,43.97,1020.03,2029.00,3510.04,3103.24,3523.05,599.83,591.04,9.04,0000 0000 0000 0000 000000
2016-07-05 10:00:15,0.00,0.09,0.00,26.44,29.73,32.25,14.30,44.03,1020.02,2029.00,3510.00,3103.02,3522.99,600.13,591.35,9.09,0000 0000 0000 0000 000000
2016-07-05 10:05:16,0.00,0.09,0.00,26.46,29.75,32.26,14.31,43.98,1020.01,2028.99,3509.90,3103.00,3522.91,599.87,590.90,9.14,0000 0000 0000 0000 000000
2016-07-05 10:10:18,0.01,0.09,0.00,26.49,29.77,32.29,14.26,43.94,1020.02,2028.97,3509.28,3102.99,3522.36,600.00,591.15,9.19,0000 0000 0000 0000 000000
2016-07-05 10:15:19,0.01,0.09,0.00,26.51,29.79,32.29,14.34,43.88,1020.03,2028.94,3509.02,3102.71,3522.03,600.09,591.18,9.24,0000 0000 0000 0000 000000
2016-07-05 10:20:20,-0.01,0.09,0.00,26.52,29.81,32.29,14.26,43.94,1020.03,2028.70,3509.00,3102.10,3521.99,599.63,590.67,9.29,0000 0000 0000 0000 000000
2016-07-05 10:25:22,-0.03,0.09,0.00,26.55,29.84,32.29,14.27,43.98,1020.03,2028.18,3508.70,3102.00,3521.58,599.93,590.89,9.34,0000 0000 0000 0000 000000
2016-07-05 10:30:24,0.00,0.09,0.00,26.59,29.87,32.30,14.23,43.97,1020.03,2028.01,3508.13,3101.96,3521.02,599.63,590.54,9.40,0000 0000 0000 0000 000000
2016-07-05 10:35:25,0.02,0.09,0.00,26.64,29.90,32.33,14.21,43.97,1020.03,2028.00,3508.01,3101.25,3520.89,599.74,590.47,9.45,0000 0000 0000 0000 000000
2016-07-05 10:40:26,0.01,0.09,0.00,26.63,29.93,32.35,14.27,44.00,1020.00,2027.99,3507.99,3101.02,3520.38,599.98,590.89,9.50,0000 0000 0000 0000 000000
2016-07-05 10:45:27,-0.00,0.09,0.00,26.68,29.96,32.38,14.25,43.96,1020.01,2027.89,3507.66,3100.97,3520.01,599.66,590.36,9.55,0000 0000 0000 0000 000000
2016-07-05 10:50:29,-0.02,0.09,0.00,26.71,29.99,32.41,14.24,43.93,1020.01,2027.57,3507.08,3100.75,3519.98,599.92,590.56,9.60,0000 0000 0000 0000 000000
2016-07-05 10:55:30,-0.01,0.09,0.00,26.74,30.03,32.44,14.25,43.92,1019.98,2027.15,3507.01,3100.15,3519.81,599.79,590.30,9.65,0000 0000 0000 0000 000000
2016-07-05 11:00:31,0.00,0.09,0.00,26.79,30.06,32.48,14.26,44.03,1020.01,2027.01,3506.96,3100.00,3519.09,600.13,590.58,9.70,0000 0000 0000 0000 000000
2016-07-05 11:05:33,0.01,0.09,0.00,26.84,30.10,32.53,14.18,43.95,1019.99,2027.00,3506.45,3099.99,3519.00,599.54,589.95,9.75,0000 0000 0000 0000 000000
2016-07-05 11:10:34,0.02,0.09,0.00,26.88,30.13,32.57,14.22,44.10,1019.87,2027.00,3506.01,3099.52,3518.98,600.01,590.23,9.80,0000 0000 0000 0000 000000
2016-07-05 11:15:35,0.01,0.09,0.00,26.91,30.17,32.59,14.28,44.00,1019.64,2026.98,3505.99,3099.04,3518.41,600.33,590.29,9.85,0000 0000 0000 0000 000000
2016-07-05 11:20:37,-0.01,0.09,0.00,26.93,30.21,32.63,14.17,43.99,1019.60,2026.83,3505.60,3099.00,3518.02,599.72,589.63,9.90,0000 0000 0000 0000 000000
2016-07-05 11:25:38,-0.04,0.09,0.00,26.96,30.24,32.65,14.26,43.99,1019.57,2026.21,3505.02,3098.77,3517.88,600.39,590.34,9.95,0000 0000 0000 0000 000000
2016-07-05 11:30:40,0.02,0.09,0.00,26.99,30.27,32.69,14.23,43.96,1019.55,2026.01,3504.95,3098.08,3517.14,599.81,589.60,10.00,0000 0000 0000 0000 000000
2016-07-05 11:35:41,0.00,0.09,0.00,27.01,30.30,32.71,14.25,43.92,1019.55,2026.00,3504.50,3098.00,3517.00,600.02,589.77,10.05,0000 0000 0000 0000 000000
2016-07-05 11:40:42,0.01,0.09,0.00,27.03,30.32,32.74,14.21,44.08,1019.55,2025.99,3504.02,3097.93,3516.86,599.92,589.65,10.10,0000 0000 0000 0000 000000
2016-07-05 11:45:43,0.03,0.09,0.00,27.04,30.35,32.79,14.25,43.98,1019.55,2025.99,3503.85,3097.43,3516.35,599.99,589.64,10.15,0000 0000 0000 0000 000000
2016-07-05 11:50:45,0.01,0.09,0.00,27.05,30.37,32.82,14.24,44.02,1019.54,2025.99,3503.19,3097.01,3516.01,599.99,589.64,10.20,0000 0000 0000 0000 000000
2016-07-05 11:55:46,0.00,0.09,0.00,27.06,30.40,32.86,14.26,44.02,1019.44,2025.95,3503.00,3096.99,3515.99,600.02,589.57,10.25,0000 0000 0000 0000 000000
2016-07-05 12:00:47,0.00,0.09,0.00,27.06,30.42,32.90,14.24,43.97,1019.26,2025.80,3502.77,3096.85,3515.45,600.05,589.59,10.30,0000 0000 0000 0000 000000
2016-07-05 12:05:48,-0.03,0.09,0.00,27.05,30.44,32.90,14.23,43.97,1019.10,2025.21,3502.63,3096.30,3515.03,600.14,589.53,10.35,0000 0000 0000 0000 000000
2016-07-05 12:10:49,0.01,0.09,0.00,27.03,30.46,32.97,14.24,44.03,1019.08,2025.04,3502.08,3096.03,3515.00,600.15,589.60,10.40,0000 0000 0000 0000 000000
2016-07-05 12:15:50,0.00,0.09,0.00,27.01,30.48,32.99,14.22,43.92,1019.07,2025.04,3501.80,3096.00,3514.88,599.82,589.36,10.45,0000 0000 0000 0000 000000
2016-07-05 12:20:52,0.02,0.09,0.00,27.02,30.50,33.04,14.23,44.00,1019.06,2025.02,3501.24,3095.94,3514.24,599.89,589.37,10.50,0000 0000 0000 0000 000000
2016-07-05 12:25:53,0.01,0.09,0.00,27.01,30.52,33.07,14.21,44.02,1019.06,2025.00,3501.00,3095.48,3514.00,599.85,589.34,10.55,0000 0000 0000 0000 000000
2016-07-05 12:30:54,0.00,0.09,0.00,27.01,30.54,33.09,14.22,44.12,1019.06,2025.00,3500.97,3095.05,3513.98,600.19,589.67,10.60,0000 0000 0000 0000 000000
2016-07-05 12:35:56,0.01,0.09,0.00,27.03,30.55,33.11,14.28,43.98,1019.03,2025.00,3500.47,3095.00,3513.79,599.89,589.32,10.65,0000 0000 0000 0000 000000
2016-07-05 12:40:57,0.01,0.09,0.00,27.02,30.57,33.13,14.27,44.07,1018.87,2024.99,3500.24,3094.99,3513.19,600.26,589.48,10.70,0000 0000 0000 0000 000000
2016-07-05 12:45:58,0.00,0.09,0.00,27.06,30.59,33.12,14.22,44.02,1018.80,2024.98,3500.02,3094.92,3513.01,600.05,589.32,10.75,0000 0000 0000 0000 000000
2016-07-05 12:50:59,0.00,0.09,0.00,27.05,30.61,33.17,14.26,44.13,1018.66,2024.98,3500.00,3094.90,3513.00,600.05,589.10,10.80,0000 0000 0000 0000 000000
2016-07-05 12:56:00,0.01,0.10,0.00,27.07,30.62,33.17,14.25,44.00,1018.58,2024.96,3499.98,3094.42,3512.98,599.95,589.09,10.85,0000 0000 0000 0000 000000
2016-07-05 13:01:01,0.01,0.10,0.00,27.09,30.64,33.19,14.23,43.96,1018.57,2024.95,3499.56,3094.06,3512.87,600.13,589.12,10.90,0000 0000 0000 0000 000000